{"data":{"norad_id":66170,"intl_designator":"2025-240AA","name":"STARLINK-35585","alt_names":[],"object_type":"PAYLOAD","status":"ACTIVE","operator":null,"country":"US","launch_date":"2025-10-25","launch_site_code":"AFWTR","launch_vehicle":null,"mission":null,"orbit_class":"UNKNOWN","rcs_meters":null,"size_class":null,"mass_kg":null,"dimensions":null,"purposes":["comms"],"wikipedia_slug":null,"has_3d_model":false,"image_url":null,"decayed_at":null,"tle_current":{"epoch":"2026-05-25T03:40:25.269600Z","epoch_age_seconds":55792,"freshness":"FRESH","line1":"1 66170U 25240AA  26145.15307025  .00022765  00000+0  68261-3 0  9991","line2":"2 66170  53.1589  67.0494 0000923  89.1920 270.9188 15.34410699 33706","mean_motion":15.34410699,"eccentricity":9.23e-5,"inclination_deg":53.1589,"raan_deg":67.0494,"arg_perigee_deg":89.192,"mean_anomaly_deg":270.9188,"bstar":0.00068261,"rev_number":3370,"period_min":93.847103708184,"perigee_km":462.04003409009,"apogee_km":463.30284732824,"semimajor_km":6840.8084407092,"source":"CELESTRAK","updated_at":"2026-05-25T13:38:21.074008Z"}}}